Simultaneous Nadir Overpasses (SNOs) Predictions

Prediction of SNOs between LANDSAT-8 and METOP-A Satellite Orbit:

Table of predicted SNOs for the next 14.0 days since TLE Epoch: 2/1/2020
Index Date (LANDSAT-8) Time (LANDSAT-8) Lat,Lon (LANDSAT-8) SZA (LANDSAT-8 ) Date (METOP-A) Time (METOP-A) Lat,Lon (METOP-A) SZA (METOP-A ) Distance(km) Time Diff (sec)
1 02/02/2020 09:59:32 -81.49,-103.46 79.43 02/02/2020 09:59:18 -81.48,-103.60 79.46 2.25 14
2 02/02/2020 10:48:59 81.48, 63.90 100.52 02/02/2020 10:49:58 81.48, 64.04 100.57 2.41 59
3 02/05/2020 05:33:46 -81.49, -36.99 80.26 02/05/2020 05:33:40 -81.48, -36.99 80.27 1.06 6
4 02/05/2020 06:23:13 81.48, 130.34 99.69 02/05/2020 06:24:21 81.48, 130.23 99.71 2.00 68
5 02/08/2020 00:18:33 81.48,-138.54 98.84 02/08/2020 00:17:22 81.49,-138.49 98.83 1.43 71
6 02/08/2020 01:08:00 -81.47, 29.06 81.18 02/08/2020 01:08:02 -81.48, 29.20 81.16 2.51 2
7 02/10/2020 19:52:46 81.49, -71.76 97.99 02/10/2020 19:51:44 81.48, -71.92 97.94 2.65 62
8 02/10/2020 20:42:13 -81.49, 95.86 82.03 02/10/2020 20:42:24 -81.48, 95.78 82.04 1.61 11
9 02/13/2020 15:27:00 81.49, -5.41 97.05 02/13/2020 15:26:06 81.48, -5.36 97.03 1.06 54




NCC Satellite Simultaneous Nadir Overpasses (SNOs) Prediction Service
